Back to catalog

WGS F2

USA 204

AliveMilitaryGEO
NORAD 34713·PAYLOAD·🇺🇸 United States

Launched Apr 4, 2009 from Cape Canaveral Space Force Station

Loading…

TLE

FreshSource: Space-Track

Epoch: Sep 14, 2026, 14:04 UTC

1 34713U 09017A   26257.58654106  .00000000  00000-0  00000-0 0  9992
2 34713   0.0190 154.7489 0000366 345.3192 122.1617  1.00271229 46510

Track WGS F2 in real time with AllMySat

Download on the App Store